CW5111 Weather Reports


time (UTC)temp
F
wind
direction
speed
knots
gust
knots
rain 1hr
in
rain 24hr
in
rain mn
in
humidity
%
barometer
mb
20260507160004 60 140 3.5 7.0 0.00 0.00 0.00 48 1014.4
20260507154504 60 131 2.6 7.8 0.00 0.00 0.00 47 1014.4
20260507153004 60 153 3.5 7.8 0.00 0.00 0.00 47 1014.5
20260507151504 62 147 3.5 9.6 0.00 0.00 0.00 45 1014.5
20260507150005 60 114 2.6 6.1 0.00 0.00 0.00 46 1014.6
20260507144503 60 172 1.7 6.1 0.00 0.00 0.00 46 1014.7
20260507143004 62 157 2.6 7.0 0.00 0.00 0.00 45 1014.8
20260507141504 62 183 2.6 6.1 0.00 0.00 0.00 42 1014.9
20260507140006 63 139 1.7 5.2 0.00 0.00 0.00 42 1015.0
20260507134503 61 132 2.6 8.7 0.00 0.00 0.00 46 1015.1
20260507133003 61 147 1.7 5.2 0.00 0.00 0.00 45 1015.1
20260507131504 60 131 2.6 6.1 0.00 0.00 0.00 47 1015.2
20260507130003 59 125 2.6 5.2 0.00 0.00 0.00 46 1015.3
20260507124503 61 173 2.6 7.0 0.00 0.00 0.00 44 1015.3
20260507123002 63 172 3.5 7.8 0.00 0.00 0.00 47 1015.3
20260507121502 61 122 1.7 5.2 0.00 0.00 0.00 47 1015.2
20260507120004 60 155 1.7 6.1 0.00 0.00 0.00 52 1015.5
20260507113002 59 187 2.6 7.0 0.00 0.00 0.00 53 1015.7
20260507111503 58 213 1.7 5.2 0.00 0.00 0.00 59 1015.8
20260507110003 57 190 2.6 7.0 0.00 0.00 0.00 59 1015.8
20260507104503 56 191 1.7 5.2 0.00 0.00 0.00 63 1016.0
20260507103002 55 150 1.7 4.3 0.00 0.00 0.00 65 1016.0
20260507101503 55 150 2.6 6.1 0.00 0.00 0.00 64 1016.1
20260507100004 55 121 2.6 5.2 0.00 0.00 0.00 66 1016.1
20260507094503 54 122 2.6 6.1 0.00 0.00 0.00 71 1016.0
20260507093002 54 108 2.6 5.2 0.00 0.00 0.00 73 1016.1
20260507091503 53 119 2.6 6.1 0.00 0.00 0.00 73 1016.1
20260507090004 53 129 2.6 5.2 0.00 0.00 0.00 76 1016.1
20260507084503 52 138 1.7 5.2 0.00 0.00 0.00 76 1016.1
20260507081503 50 103 1.7 4.3 0.00 0.00 0.00 79 1016.1
20260507074502 48 101 1.7 5.2 0.00 0.00 0.00 82 1016.1
20260507073004 47 131 2.6 7.0 0.00 0.00 0.00 83 1016.2
20260507071503 47 93 1.7 3.5 0.00 0.00 0.00 85 1016.1
20260507070006 46 135 1.7 4.3 0.00 0.00 0.00 86 1016.1
20260507064502 45 112 1.7 4.3 0.00 0.00 0.00 86 1016.1
20260507063003 44 129 1.7 4.3 0.00 0.00 0.00 87 1015.9
20260507060003 43 115 1.7 3.5 0.00 0.00 0.00 89 1015.9
20260507053003 42 108 1.7 2.6 0.00 0.00 0.00 90 1015.8
20260507051503 42 122 0.9 3.5 0.00 0.00 0.00 91 1015.8
20260507050003 42 115 0.9 2.6 0.00 0.00 0.00 90 1015.8
20260507043003 42 142 1.7 3.5 0.00 0.00 0.00 91 1015.8
20260507041503 42 101 0.9 4.3 0.00 0.00 0.00 90 1015.6
20260507040004 42 129 1.7 4.3 0.00 0.00 0.00 90 1015.6
20260507034503 42 104 1.7 4.3 0.00 0.00 0.00 90 1015.5
20260507030004 42 86 0.9 3.5 0.00 0.00 0.00 91 1015.8
20260507023003 41 91 1.7 4.3 0.00 0.00 0.00 91 1015.5
20260507021503 41 90 0.9 3.5 0.00 0.00 0.00 91 1015.6
20260507020004 41 100 0.9 2.6 0.00 0.00 0.00 91 1015.6
20260507014503 41 70 0.9 2.6 0.00 0.00 0.00 91 1015.6
20260507013003 41 66 0.9 1.7 0.00 0.00 0.00 91 1015.7
20260507011503 40 46 0.9 2.6 0.00 0.00 0.00 90 1015.6
20260507004503 41 0 0.0 1.7 0.00 0.00 0.00 89 1015.7
20260507003003 42 97 0.9 2.6 0.00 0.00 0.00 89 1015.8
20260507001503 42 84 0.9 3.5 0.00 0.00 0.00 89 1015.9
20260507000004 42 83 0.9 3.5 0.00 0.00 0.00 89 1016.1
20260506234503 42 72 0.9 3.5 0.00 0.00 0.00 90 1016.1
20260506233003 41 51 0.9 2.6 0.00 0.00 0.00 90 1016.0
20260506231503 41 71 0.9 3.5 0.00 0.00 0.00 91 1015.9
20260506224503 40 73 0.9 2.6 0.00 0.00 0.00 89 1016.0
20260506223003 40 54 0.9 1.7 0.00 0.00 0.00 89 1016.0
20260506221504 40 64 0.9 2.6 0.00 0.00 0.00 88 1015.9
20260506220004 41 47 0.9 2.6 0.00 0.00 0.00 88 1015.7
20260506213003 42 51 0.9 3.5 0.00 0.00 0.00 87 1015.7
20260506211503 42 65 0.9 2.6 0.00 0.00 0.00 86 1015.6
20260506210004 42 76 0.9 3.5 0.00 0.00 0.00 85 1015.5
20260506204503 43 70 0.9 2.6 0.00 0.00 0.00 84 1015.2
20260506201503 44 76 1.7 4.3 0.00 0.00 0.00 82 1015.1
20260506200003 45 71 1.7 5.2 0.00 0.00 0.00 81 1014.9
20260506194503 46 85 1.7 4.3 0.00 0.00 0.00 79 1014.8
20260506193002 47 61 1.7 5.2 0.00 0.00 0.00 77 1014.6
20260506191503 47 73 2.6 7.8 0.00 0.00 0.00 75 1014.5
20260506190004 48 50 1.7 6.1 0.00 0.00 0.00 72 1014.6
20260506184503 49 23 2.6 6.1 0.00 0.00 0.00 68 1014.6
20260506183003 49 61 2.6 6.1 0.00 0.00 0.00 69 1014.5
20260506181503 50 60 1.7 6.1 0.00 0.00 0.00 69 1014.5
20260506180004 51 79 2.6 7.8 0.00 0.00 0.00 66 1014.4
20260506174503 52 16 2.6 8.7 0.00 0.00 0.00 63 1014.3
20260506173003 53 45 2.6 6.1 0.00 0.00 0.00 64 1014.1
20260506171503 53 32 1.7 6.1 0.00 0.00 0.00 59 1014.1
20260506170004 53 36 1.7 4.3 0.00 0.00 0.00 59 1014.0
20260506164503 53 30 2.6 5.2 0.00 0.00 0.00 59 1014.0
20260506163003 53 30 1.7 7.0 0.00 0.00 0.00 58 1014.0